When you browse on this site, cookies collect data to enhance your experience and personalize the content and advertising you see.
Visit our Privacy Policy to learn more. By continuing to use the site, you agree to this use of cookies and data.
  • In Spain
  • List of Countries
  • For 7 days
  • Water Temperature
  • Weather Map
  • Weather Widgets
  • user-avatar
    Login

    Hourly Weather Buchach

    Today, 3 June, Wednesday

    Time Temperature Precipitation Wind Pressure Humidity
    00:00 +6°C° 0.4 mm 4 mps 722 mmHg 96%
    01:00 +6°C° 0.4 mm 4 mps 722 mmHg 96%
    02:00 +6°C° 0.4 mm 5 mps 722 mmHg 96%
    03:00 +6°C° 0.9 mm 4 mps 721 mmHg 96%
    04:00 +7°C° 0.9 mm 4 mps 721 mmHg 97%
    05:00 +7°C° 0.9 mm 4 mps 721 mmHg 97%
    06:00 +7°C° 1.1 mm 4 mps 721 mmHg 96%
    07:00 +7°C° 1.1 mm 4 mps 721 mmHg 95%
    08:00 +7°C° 1.1 mm 4 mps 722 mmHg 95%
    09:00 +8°C° 0.2 mm 4 mps 722 mmHg 93%
    10:00 +8°C° 0.2 mm 4 mps 722 mmHg 90%
    11:00 +10°C° 0.2 mm 4 mps 722 mmHg 88%
    12:00 +11°C° 0.3 mm 4 mps 722 mmHg 84%
    13:00 +12°C° 0.3 mm 5 mps 722 mmHg 81%
    14:00 +13°C° 0.3 mm 5 mps 722 mmHg 77%
    15:00 +13°C° 0.3 mm 4 mps 721 mmHg 77%
    16:00 +13°C° 0.3 mm 4 mps 721 mmHg 78%
    17:00 +13°C° 0.3 mm 4 mps 721 mmHg 79%
    18:00 +12°C° 0.1 mm 3 mps 721 mmHg 82%
    19:00 +12°C° 0.1 mm 2 mps 721 mmHg 86%
    20:00 +11°C° 0.1 mm 1 mps 721 mmHg 90%
    21:00 +10°C° 0 mm 1 mps 721 mmHg 90%
    22:00 +9°C° 0 mm 1 mps 721 mmHg 90%
    23:00 +9°C° 0 mm 1 mps 721 mmHg 91%

    Tomorrow, 4 June, Thursday

    Time Temperature Precipitation Wind Pressure Humidity
    00:00 +9°C° 0 mm 1 mps 721 mmHg 91%
    01:00 +8°C° 0 mm 1 mps 721 mmHg 91%
    02:00 +8°C° 0 mm 1 mps 721 mmHg 91%
    03:00 +8°C° 0 mm 1 mps 721 mmHg 91%
    04:00 +8°C° 0 mm 1 mps 721 mmHg 92%
    05:00 +8°C° 0 mm 1 mps 721 mmHg 92%
    06:00 +9°C° 0.1 mm 2 mps 721 mmHg 88%
    07:00 +10°C° 0.1 mm 2 mps 721 mmHg 85%
    08:00 +12°C° 0.1 mm 3 mps 721 mmHg 81%
    09:00 +13°C° 0.2 mm 3 mps 721 mmHg 76%
    10:00 +16°C° 0.2 mm 3 mps 721 mmHg 70%
    11:00 +17°C° 0.2 mm 3 mps 721 mmHg 65%
    12:00 +18°C° 0.4 mm 3 mps 721 mmHg 65%
    13:00 +18°C° 0.4 mm 3 mps 721 mmHg 65%
    14:00 +19°C° 0.4 mm 3 mps 721 mmHg 66%
    15:00 +19°C° 0.4 mm 3 mps 721 mmHg 67%
    16:00 +19°C° 0.4 mm 2 mps 721 mmHg 69%
    17:00 +19°C° 0.4 mm 2 mps 720 mmHg 71%
    18:00 +17°C° 0.1 mm 2 mps 720 mmHg 75%
    19:00 +16°C° 0.1 mm 2 mps 720 mmHg 80%
    20:00 +14°C° 0.1 mm 3 mps 720 mmHg 84%
    21:00 +13°C° 0 mm 3 mps 720 mmHg 85%
    22:00 +13°C° 0 mm 3 mps 720 mmHg 86%
    23:00 +12°C° 0 mm 3 mps 720 mmHg 87%

    Day after tomorrow, 5 June, Friday

    Time Temperature Precipitation Wind Pressure Humidity
    00:00 +12°C° 0.3 mm 3 mps 720 mmHg 89%
    01:00 +13°C° 0.3 mm 3 mps 719 mmHg 90%
    02:00 +13°C° 0.3 mm 3 mps 719 mmHg 92%
    03:00 +13°C° 0.2 mm 3 mps 719 mmHg 91%
    04:00 +13°C° 0.2 mm 4 mps 719 mmHg 91%
    05:00 +13°C° 0.2 mm 4 mps 719 mmHg 90%
    06:00 +14°C° 0 mm 4 mps 720 mmHg 88%
    07:00 +15°C° 0 mm 4 mps 720 mmHg 86%
    08:00 +17°C° 0 mm 4 mps 720 mmHg 84%
    09:00 +17°C° 0 mm 5 mps 720 mmHg 78%
    10:00 +20°C° 0 mm 6 mps 721 mmHg 72%
    11:00 +21°C° 0 mm 7 mps 721 mmHg 66%
    12:00 +22°C° 0 mm 7 mps 721 mmHg 66%
    13:00 +22°C° 0 mm 7 mps 721 mmHg 67%
    14:00 +22°C° 0 mm 6 mps 721 mmHg 68%
    15:00 +22°C° 0 mm 5 mps 721 mmHg 69%
    16:00 +23°C° 0 mm 4 mps 721 mmHg 70%
    17:00 +24°C° 0 mm 3 mps 721 mmHg 71%
    18:00 +22°C° 0 mm 3 mps 721 mmHg 73%
    19:00 +20°C° 0 mm 2 mps 721 mmHg 75%
    20:00 +19°C° 0 mm 2 mps 721 mmHg 77%
    21:00 +18°C° 0 mm 2 mps 722 mmHg 74%
    22:00 +18°C° 0 mm 3 mps 722 mmHg 72%
    23:00 +17°C° 0 mm 3 mps 722 mmHg 70%

    6 June, Saturday

    Time Temperature Precipitation Wind Pressure Humidity
    00:00 +17°C° 0 mm 3 mps 722 mmHg 71%
    01:00 +17°C° 0 mm 3 mps 723 mmHg 71%
    02:00 +17°C° 0 mm 3 mps 723 mmHg 72%
    03:00 +17°C° 0 mm 3 mps 723 mmHg 75%
    04:00 +16°C° 0 mm 3 mps 724 mmHg 79%
    05:00 +16°C° 0 mm 3 mps 724 mmHg 82%
    06:00 +17°C° 0 mm 3 mps 725 mmHg 82%
    07:00 +18°C° 0 mm 2 mps 725 mmHg 81%
    08:00 +19°C° 0 mm 2 mps 726 mmHg 80%
    09:00 +20°C° 0.1 mm 2 mps 726 mmHg 76%
    10:00 +21°C° 0.1 mm 2 mps 727 mmHg 72%
    11:00 +23°C° 0.1 mm 1 mps 727 mmHg 68%
    12:00 +23°C° 0.6 mm 1 mps 727 mmHg 68%
    13:00 +24°C° 0.6 mm 1 mps 727 mmHg 67%
    14:00 +24°C° 0.6 mm 1 mps 727 mmHg 67%
    15:00 +24°C° 0.9 mm 2 mps 727 mmHg 70%
    16:00 +24°C° 0.9 mm 2 mps 727 mmHg 73%
    17:00 +24°C° 0.9 mm 3 mps 727 mmHg 77%
    18:00 +21°C° 0.3 mm 3 mps 727 mmHg 80%
    19:00 +20°C° 0.3 mm 3 mps 727 mmHg 84%
    20:00 +19°C° 0.3 mm 3 mps 727 mmHg 88%
    21:00 +18°C° 0.1 mm 3 mps 727 mmHg 89%
    22:00 +18°C° 0.1 mm 3 mps 727 mmHg 91%
    23:00 +17°C° 0.1 mm 3 mps 727 mmHg 93%

    7 June, Sunday

    Time Temperature Precipitation Wind Pressure Humidity
    00:00 +17°C° 0 mm 3 mps 727 mmHg 93%
    01:00 +16°C° 0 mm 3 mps 727 mmHg 92%
    02:00 +16°C° 0 mm 3 mps 727 mmHg 92%
    03:00 +16°C° 0.1 mm 3 mps 727 mmHg 92%
    04:00 +14°C° 0.1 mm 3 mps 727 mmHg 92%
    05:00 +13°C° 0.1 mm 3 mps 727 mmHg 92%
    06:00 +16°C° 0 mm 3 mps 727 mmHg 90%
    07:00 +17°C° 0 mm 4 mps 727 mmHg 88%
    08:00 +17°C° 0 mm 5 mps 727 mmHg 86%
    09:00 +19°C° 0 mm 5 mps 727 mmHg 84%
    10:00 +20°C° 0 mm 5 mps 727 mmHg 82%
    11:00 +21°C° 0 mm 5 mps 727 mmHg 80%
    12:00 +22°C° 0.5 mm 6 mps 727 mmHg 79%
    13:00 +23°C° 0.5 mm 6 mps 727 mmHg 77%
    14:00 +24°C° 0.5 mm 7 mps 727 mmHg 75%
    15:00 +23°C° 0.9 mm 6 mps 727 mmHg 77%
    16:00 +23°C° 0.9 mm 5 mps 727 mmHg 79%
    17:00 +22°C° 0.9 mm 4 mps 727 mmHg 81%
    18:00 +21°C° 0.1 mm 4 mps 727 mmHg 81%
    19:00 +20°C° 0.1 mm 3 mps 727 mmHg 82%
    20:00 +19°C° 0.1 mm 2 mps 727 mmHg 82%
    21:00 +18°C° 0.1 mm 3 mps 727 mmHg 83%
    22:00 +18°C° 0.1 mm 3 mps 727 mmHg 83%
    23:00 +17°C° 0.1 mm 4 mps 727 mmHg 84%

    8 June, Monday

    Time Temperature Precipitation Wind Pressure Humidity
    00:00 +16°C° 0 mm 3 mps 727 mmHg 85%
    01:00 +16°C° 0 mm 3 mps 726 mmHg 87%
    02:00 +14°C° 0 mm 3 mps 726 mmHg 88%
    03:00 +14°C° 0 mm 3 mps 726 mmHg 90%
    04:00 +14°C° 0 mm 3 mps 726 mmHg 92%
    05:00 +13°C° 0 mm 3 mps 726 mmHg 93%
    06:00 +16°C° 0 mm 3 mps 726 mmHg 91%
    07:00 +17°C° 0 mm 3 mps 726 mmHg 88%
    08:00 +19°C° 0 mm 4 mps 727 mmHg 85%
    09:00 +20°C° 0 mm 4 mps 727 mmHg 82%
    10:00 +21°C° 0 mm 4 mps 727 mmHg 79%
    11:00 +22°C° 0 mm 4 mps 727 mmHg 75%
    12:00 +23°C° 0.1 mm 4 mps 727 mmHg 75%
    13:00 +23°C° 0.1 mm 4 mps 727 mmHg 74%
    14:00 +25°C° 0.1 mm 4 mps 727 mmHg 74%
    15:00 +24°C° 0.7 mm 3 mps 727 mmHg 77%
    16:00 +24°C° 0.7 mm 3 mps 727 mmHg 80%
    17:00 +24°C° 0.7 mm 3 mps 726 mmHg 83%
    18:00 +23°C° 0.4 mm 2 mps 726 mmHg 84%
    19:00 +21°C° 0.4 mm 2 mps 726 mmHg 85%
    20:00 +20°C° 0.4 mm 2 mps 726 mmHg 86%
    21:00 +19°C° 0 mm 2 mps 727 mmHg 87%
    22:00 +19°C° 0 mm 2 mps 727 mmHg 89%
    23:00 +18°C° 0 mm 2 mps 727 mmHg 91%
    Show more